Regional Weather Roundup
Issued by NWS Cleveland, OH

Home | Current Version | Previous Version | Text Only | Print | Product List | Glossary Off
Versions: 1 2 3 4 5 6 7 8 9 10 11 12 13 14 15 16 17 18 19 20 21 22 23 24 25 26 27 28 29 30 31 32 33 34 35 36 37 38 39 40 41 42 43 44 45 46 47 48 49 50

000
ASUS41 KCLE 241600
RWRCLE
OHIO REGIONAL WEATHER ROUNDUP
NATIONAL WEATHER SERVICE WILMINGTON, OH
1200 PM EDT SUN MAY 24 2015

NOTE: "FAIR" INDICATES FEW OR NO CLOUDS BELOW 12,000 FEET WITH NO
SIGNIFICANT WEATHER AND/OR OBSTRUCTIONS TO VISIBILITY.

OHZ001>008-015>018-024>027-034-035-043-044-241700-
   NORTHWEST OHIO

CITY           SKY/WX    TMP DP  RH WIND       PRES   REMARKS
DEFIANCE       PTSUNNY   75  50  41 S9        30.24F
FINDLAY        MOSUNNY   79  49  34 S13G21    30.25S
TOLEDO EXPRESS MOSUNNY   79  48  33 S10G17    30.24F
TOLEDO EXEC    PTSUNNY   81  46  29 SW15G22   30.25F
LIMA           CLOUDY    77  52  41 S14       30.25F
$$

OHZ009>014-019>023-028>033-038-089-241700-
   NORTHEAST OHIO

CITY           SKY/WX    TMP DP  RH WIND       PRES   REMARKS
CLE-HOPKINS    MOSUNNY   78  47  33 SW10      30.30F
CLE-LAKEFRONT  SUNNY     78  47  33 SW8       30.27F
CUY CO. ARPT   MOSUNNY   79  52  38 SW12      30.30F
LORAIN-ELYRIA  SUNNY     79  45  29 SW13      30.28F
ASHTABULA      MOSUNNY   75  50  41 SW10      30.31S
AKRON-CANTON   MOSUNNY   78  45  30 SW13      30.31F
WOOSTER        NOT AVBL
MANSFIELD      SUNNY     77  45  32 S10       30.30F
YOUNGSTOWN     MOSUNNY   76  46  34 SW7       30.32S
$$

OHZ042-051>053-060>062-070>072-077>081-241700-
  SOUTHWEST OHIO

CITY           SKY/WX    TMP DP  RH WIND       PRES   REMARKS
CINC-COVINGTON CLOUDY    76  54  46 S12G17    30.27F
CINC-LUNKEN    PTSUNNY   78  53  41 SW14G21   30.27F
HAMILTON       PTSUNNY   77  51  40 S9G16     30.27F
DAYTON         NOT AVBL
WRIGHT-PAT AFB MOSUNNY   79  52  39 SW8       30.27F
DAYTON GENERAL PTSUNNY   77  54  44 S8        30.27F
WILMINGTON     SUNNY     80  50  34 SW13      30.28F
$$

OHZ036-037-039>041-045>050-054>059-063>069-073>076-082>088-241700-
  CENTRAL AND SOUTHEAST OHIO

CITY           SKY/WX    TMP DP  RH WIND       PRES   REMARKS
COLUMBUS       PTSUNNY   77  50  38 S10G18    30.29F
OSU AIRPORT    MOSUNNY   77  50  38 S10       30.29F
BOLTON FIELD   PTSUNNY   73  50  43 S7        30.31S
RICKENBACK AFB NOT AVBL
NEWARK         SUNNY     79  49  34 SE8       30.29F
MARION         MOSUNNY   77  46  33 S14G22    30.29F
LANCASTER      MOSUNNY   80  48  32 SW12      30.30F
ZANESVILLE     MOSUNNY   77  45  32 SW9       30.31F
NEW PHILLY     SUNNY     78  46  32 S8        30.32F
$$


USA.gov is the U.S. government's official web portal to all federal, state and local government web resources and services.